Погода в Могоче

Погода в Могоче : погода сейчас, прогноз погоды и архив. Всё, что Вы хотите узнать о погоде в Могоче!

Хотите узнать прогноз погоды в Могоче? Тогда Вам сюда: Погода в Могоче

Поиск расширенной информации на нашем сайте:

Другие новости

Новости СМИ2

Главная страница сайта

Новости сайта

02.10.2013

Напоминаем, что на нашем новом сайте вы можете получить высокодетализированные прогнозы погоды по пунктам России, СНГ и мира (включающие важные для авиации метеовеличины, такие как направление и скорость ветра, видимость, явления погоды, количество и форма облачности, нижняя и верхняя граница облачности), а также ознакомиться с разнообразными материалами по авиационной метеорологии и подборкой полезных ссылок на эту тему.

Сайт Метеоцентр.Азия посвящён разработке технологий оптимизации авиаметеорологического обслуживания, включая проектирование и перспективное создание нескольких автоматизированных авиаметеорологических систем:
- система выпуска высокодетальных прогностических карт явлений погоды для нижнего воздушного пространства по России и ближнему зарубежью;
- система верификации прогнозов TAF (выпускаемых синоптиками официальных АМСГ РФ и ближнего зарубежья) и AUTOTAF (выпускаемых сайтом Метеоцентр.Азия) - выявление ошибок, онлайн-сопоставление с фактической погодой METAR, автоматическое внесение коррективов в прогнозы при резком отклонении фактической погоды от прогноза, подсчёт оправдываемости прогнозов по элементам и в целом;
- система обработки, анализа и отображения авиаметеорологической информации для применения провайдерами метеорологической информации.

Рекомендуем: предлагаются помещения продажа офиса в БЦ Eurasia Tower в деловом центре Москва Сити

Погода в Могоче - сегодня

Время (UTC), дата Ветер
(°,м/с) 
Видим.   Явления Облачность Т
(°С)
Тd
(°С)
f(%) Тe
(°С)
Pmin
(гПа)
dP
(гПа)
Po
(мм)
O2
(г/м3)
Тmin Tmax R s Состояние
почвы
21 25.05.17 200 (Ю) 20000 м    3/0 верхняя 
[Ci fib]
+6.5 +4.2 85 +7  1005.5  0.6  699  274           
00 26.05.17 110 (В) 20000 м    3/0 верхняя 
[Ci fib]
+16.3 +7.4 56 +18  1002.4  -0.5  699  264  +6        сухая 
03 26.05.17 110 (В) 20000 м    8/0 верхняя 
[Cs]
+26.3 +7.9 31 +26  998.4  -1.5  698  255           
06 26.05.17 160 (Ю) 1{10}  20000 м    8/3 1000 м средняя, верхняя 
[Cu med, cong|Ac lent|Cs]
+28.8 +4.9 22 +29  995.4  -2.2  696  253           
09 26.05.17 270 (З) 6-17{17}  20000 м  гроза, ливневой дождь  10/5 600 м кучево-дожд., средняя 
[Cb cap|Ac As]
+27.3 +3.9 22 +27  995.2  -0.6  696  254           
12 26.05.17 350 (С) 2{17}  20000 м  {гроза, ливн. осадки}  8/4 600 м кучево-дожд., средняя 
[Cb cap|Ac As]
+17.1 +9.7 62 +20  999  1.3  697  262    +30  0.0     
15 26.05.17 тихо ()   20000 м    8/0 средняя, верхняя 
[Ac cuf|Ci fib]
+13.7 +9.9 78 +16  1001.1  1.1  698  266           
18 26.05.17 330 (СЗ) 20000 м    5/0 средняя, верхняя 
[Ac cuf|Ci fib]
+12.3 +9.8 85 +15  1001.8  0.4  698  267           
21 26.05.17 280 (З) 20000 м    4/3 600 м кучево-дожд., верхняя 
[Cb calv|Ci fib]
+10.3 +9.2 93 +13  1001.9  -0.4  698  269           
00 27.05.17 290 (З) 20000 м    10/10 600 м кучево-дожд. 
[Cb calv]
+14.6 +10 74 +18  1001.3  0.4  698  265  +9.9        влажная 
03 27.05.17 290 (З) 20000 м    10/8 600 м кучево-дожд., средняя 
[Cb calv|Ac As]
+17.3 +9.2 59 +20  1000.9  0.3  698  263           
06 27.05.17 290 (З) 20000 м  в посл. час ливневой дождь  10/10 600 м кучево-дожд. 
[Cb calv]
+15.1 +11.2 78 +20  1001.2  0.1  698  264           
09 27.05.17 120 (ЮВ) 20000 м    9/6 1000 м кучево-дожд., верхняя 
[Cb calv|Ci fib]
+18.5 +9.7 56 +22  998.8  -1.5  697  261           
12 27.05.17 120 (ЮВ) 20000 м  в посл. час ливневой дождь  8/5 600 м кучево-дожд., верхняя 
[Cb calv|Ci fib]
+14.6 +10.2 75 +18  998.3  -1.4  696  264    +18.8     
15 27.05.17 тихо ()   н/о  гроза, ливневой дождь  10/10 600 м кучево-дожд. 
[Cb cap]
+9.3 +8 92 +9  1000.9  1.1  697  270           
18 27.05.17 250 (З) 20000 м  {ливн. осадки}  9/9 1000 м кучево-дожд. 
[Cb calv]
+7.5 +5 84 +7  1000.1  -1.3  696  272           
21 27.05.17 290 (З) 20000 м    9/9 600 м кучево-дожд. 
[Cb calv]
+6.2 +1.3 71 +4  1000.8  0.3  696  274           
00 28.05.17 290 (З) 5-10{13}  20000 м  в посл. час ливневой дождь  10/10 600 м кучево-дожд. 
[Cb calv]
+5.2 +0.3 71 +3  1002.9  1.7  697  275  +5.2      влажная 
09 28.05.17 350 (С) 20000 м  {ливн. осадки}  10/6 1000 м кучево-дожд., средняя, верхняя 
[Cb calv|Ac cuf|Ci ing]
+9.6 -0.7 49 +9  1003.7  -0.7  699  272           
12 28.05.17 340 (С) 4{13}  20000 м  {ливн. осадки}  9/5 1000 м кучево-дожд., средняя, верхняя 
[Cb calv|Ac cuf|Ci]
+8.7 -6.4 34 +8  1004.8  0.8  699  274    +10.6  0.5     
15 28.05.17 320 (СЗ) 20000 м    3/1 1000 м верхняя 
[Sc diur, vesp|Ci fib]
+4.9 -6.2 44 +3  1005.4  -0.5  699  277           
18 28.05.17 320 (СЗ) 5{11}  20000 м    ясно 
+4.2 -7.5 42 +2  1004.3  -1.1  698  278           
21 28.05.17 310 (СЗ) 4{10}  20000 м    9/0 средняя, верхняя 
[Ac lent|Ci fib]
+2.7 -6.5 51 +1  1003.5  -1.2  697  279           
00 29.05.17 290 (З) 5-10{10}  20000 м    8/0 средняя, верхняя 
[Ac lent|Ci fib]
+6.6 -6.2 39 +5  1001.7  -0.6  697  275  +2.6        влажная 
03 29.05.17 340 (С) 7{14}  20000 м    10/10 600 м кучево-дожд. 
[Cb calv]
+7.7 -4.5 42 +5  1001  -0.4  696  273           
Время (UTC), дата Ветер
(°,м/с) 
Видим.   Явления Облачность Т
(°С)
Тd
(°С)
f(%) Тe
(°С)
Pmin
(гПа)
dP
(гПа)
Po
(мм)
O2
(г/м3)
Тmin Tmax R s Состояние
почвы

Для получения пояснительной информации подведите курсор к названию столбца.

ПОГОДА в Могоче - архив

Всё, что Вы хотите узнать о погоде в Могоче - удобно и подробно!

Выберите нужную дату (начиная с 1 января 2015* года) и нажмите кнопку "Найти".
Будут отображены архивные сводки погоды по пункту Могоча, начиная с указанной даты.


Отображать данные в формате CSV (для использования в таблицах Excel)


Внимание! Наш архив погоды предназначен исключительно для личного некоммерческого использования в познавательных целях. Если Вам необходимы официальные справки о состоянии погоды (для производственных, юридических, коммерческих и т.п. целей), обращайтесь в органы Росгидромета.

*Примечание: данная дата относится к архиву по метеостанциям СССР (Россия, СНГ, Балтия).
Архив по метеостанциям Зарубежной Европы и Азии (кроме Китая) хранится 10 дней, по другим регионам земного шара (Китай, Африка, Америка, Австралия, Океания) - 1 день.

Могоча - район местоположения метеостанции


Название, широта, долгота, высота метеостанции:
Могоча 53.8°ш. 119.7°д. 625 м над ур. моря [Российская Федерация]

Дополнительная информация

В oтличие oт бoльшинства пoгoдных сайтoв мы публикуем пoдрoбную метеoинфoрмацию в детальнoм прoфессиoнальнoм фoрмате.

Характеристики температуры и влажнoсти вoздуха измеряются на высoте 2 м в тени вдали oт зданий и деревьев.
Скoрoсть ветра измеряется на высoте 10 м (на урoвне рoста челoвека скoрoсть ветра ниже в 1.5-2 раза). Если метеoстанция нахoдится в гoрoде или в лесу, тo скoрoсть ветра занижена на 2-4 м/с пo сравнению с oткрытым местoм. Скoрoсть ветра над акватoриями крупных рек и oзёр, а также на вершинах хoлмoв на 2-5 м/с выше, чем в oбычных услoвиях.
Атмoсфернoе давление в разных тoчках местнoсти мoжет значительнo oтличаться oт давления на метеoстанции, в зависимoсти oт услoвий рельефа (при пoдъёме на 10 м давление пoнижается примернo на 1 мм рт.ст.).